Weather History for KTIF - February, 2013

Change the Weather History Date:

Thursday, February 14, 2013

  Actual Average (KLBF) Record (KLBF)
Temperature  
Mean Temperature 26 °F 29 °F  
Max Temperature 36 °F 43 °F 72 °F (1999)
Min Temperature 16 °F 15 °F -17 °F (1936)
Degree Days  
Heating Degree Days 39 36  
Month to date heating degree days 529  
Since 1 July heating degree days 4549  
Cooling Degree Days 0 0  
Month to date cooling degree days 0  
Year to date cooling degree days 0  
Moisture  
Dew Point 19 °F    
Average Humidity 66    
Maximum Humidity 84    
Minimum Humidity 43    
Precipitation  
Precipitation 0.00 in 0.01 in 0.36 in (1964)
Month to date precipitation 0.19  
Year to date precipitation 0.53  
Snow  
Snow 0.00 in 0.20 in 5.20 in (1964)
Month to date snowfall 2.6  
Since 1 July snowfall 18.2  
Snow Depth -    
Sea Level Pressure  
Sea Level Pressure 30.10 in    
Wind  
Wind Speed 12 mph (NW)    
Max Wind Speed 34 mph    
Max Gust Speed 48 mph    
Visibility 10 miles    
Events      
T = Trace of Precipitation, MM = Missing Value Source: NWS Daily Summary

Daily Weather History Graph

Daily Weather History Graph

Search for Another Location

Airport or City:

Trip Planner

Search our weather history database for the weather conditions in past years. The results will help you decide how hot, cold, wet, or windy it might be!

Date:

Astronomy

Feb. 14, 2013 Rise Set
Actual Time 7:39 AM CST 6:14 PM CST
Civil Twilight 7:10 AM CST 6:43 PM CST
Nautical Twilight 6:37 AM CST 7:15 PM CST
Astronomical Twilight 6:05 AM CST 7:48 PM CST
Moon 9:36 AM CST (2/14) 11:25 PM CST (2/14)
Length of Visible Light 11h 32m
Length of Day
10h 35m
Waxing Crescent, 22% of the Moon is Illuminated
Feb 14
Waxing Crescent
Feb 17
First Quarter
Feb 25
Full
Mar 4
Last Quarter
Mar 11
New

Hourly Weather History & Observations

Time (CST) Temp. Windchill Dew Point Humidity Pressure Visibility Wind Dir Wind Speed Gust Speed Precip Events Conditions
12:15 AM 34.3 °F 26.5 °F 27.3 °F 76% 29.92 in 10.0 mi WNW 10.4 mph - N/A   Clear
12:35 AM 32.7 °F 26.4 °F 26.4 °F 78% 29.92 in 10.0 mi West 6.9 mph - N/A   Clear
12:55 AM 31.8 °F 26.2 °F 26.1 °F 79% 29.92 in 10.0 mi West 5.8 mph - N/A   Clear
1:15 AM 32.0 °F 24.2 °F 26.6 °F 80% 29.93 in 10.0 mi WNW 9.2 mph - N/A   Clear
1:35 AM 31.5 °F 23.5 °F 26.2 °F 81% 29.93 in 10.0 mi WNW 9.2 mph - N/A   Clear
1:55 AM 31.1 °F 23.7 °F 26.1 °F 82% 29.94 in 10.0 mi WNW 8.1 mph - N/A   Clear
2:15 AM 30.7 °F 23.3 °F 25.7 °F 82% 29.95 in 10.0 mi WNW 8.1 mph - N/A   Clear
2:35 AM 29.7 °F 26.1 °F 25.2 °F 83% 29.95 in 10.0 mi West 3.5 mph - N/A   Clear
2:55 AM 29.1 °F 24.1 °F 24.8 °F 84% 29.95 in 10.0 mi WNW 4.6 mph - N/A   Clear
3:15 AM 30.9 °F 22.8 °F 26.2 °F 83% 29.95 in 10.0 mi WNW 9.2 mph - N/A   Clear
3:35 AM 31.5 °F 23.5 °F 26.1 °F 80% 29.95 in 10.0 mi WNW 9.2 mph - N/A   Clear
3:55 AM 31.1 °F 23.7 °F 25.5 °F 80% 29.95 in 10.0 mi WNW 8.1 mph - N/A   Clear
4:15 AM 30.6 °F 23.8 °F 24.8 °F 79% 29.95 in 10.0 mi WNW 6.9 mph - N/A   Clear
4:35 AM 32.0 °F 23.0 °F 24.6 °F 74% 29.95 in 10.0 mi NW 11.5 mph - N/A   Clear
4:55 AM 32.0 °F 23.0 °F 23.9 °F 72% 29.96 in 10.0 mi NW 11.5 mph - N/A   Clear
5:15 AM 31.8 °F 23.9 °F 23.0 °F 70% 29.96 in 10.0 mi WNW 9.2 mph - N/A   Clear
5:35 AM 30.9 °F 22.2 °F 22.5 °F 71% 29.96 in 10.0 mi WNW 10.4 mph - N/A   Clear
5:55 AM 29.8 °F 21.5 °F 22.1 °F 73% 29.97 in 10.0 mi WNW 9.2 mph - N/A   Clear
6:15 AM 28.4 °F 23.3 °F 21.4 °F 75% 29.96 in 10.0 mi WNW 4.6 mph - N/A   Clear
6:35 AM 27.5 °F 20.2 °F 21.2 °F 77% 29.96 in 10.0 mi West 6.9 mph - N/A   Clear
6:55 AM 29.3 °F 20.2 °F 21.7 °F 73% 29.97 in 10.0 mi West 10.4 mph - N/A   Clear
7:15 AM 30.6 °F 22.4 °F 21.0 °F 68% 29.98 in 10.0 mi WNW 9.2 mph - N/A   Clear
7:35 AM 30.0 °F 24.1 °F 21.2 °F 70% 29.98 in 10.0 mi WNW 5.8 mph - N/A   Clear
7:55 AM 29.7 °F 21.3 °F 21.6 °F 72% 29.99 in 10.0 mi WNW 9.2 mph - N/A   Clear
8:15 AM 30.6 °F 23.1 °F 21.9 °F 70% 30.00 in 10.0 mi WNW 8.1 mph - N/A   Clear
8:35 AM 31.8 °F 23.9 °F 21.9 °F 67% 30.01 in 10.0 mi WNW 9.2 mph - N/A   Scattered Clouds
8:55 AM 32.2 °F 23.8 °F 22.1 °F 66% 30.02 in 10.0 mi NW 10.4 mph - N/A   Mostly Cloudy
9:15 AM 33.3 °F 25.1 °F 21.9 °F 63% 30.03 in 10.0 mi NW 10.4 mph 17.3 mph N/A   Overcast
9:35 AM 34.7 °F 24.7 °F 20.8 °F 57% 30.03 in 10.0 mi NNW 16.1 mph 23.0 mph N/A   Overcast
9:55 AM 34.7 °F 22.8 °F 20.5 °F 56% 30.05 in 10.0 mi NNW 23.0 mph 31.1 mph N/A   Mostly Cloudy
10:15 AM 34.7 °F 23.1 °F 20.7 °F 57% 30.05 in 10.0 mi NNW 21.9 mph 27.6 mph N/A   Clear
10:35 AM 34.7 °F 23.1 °F 18.9 °F 52% 30.06 in 10.0 mi NNW 21.9 mph 33.4 mph N/A   Clear
10:55 AM 35.4 °F 23.0 °F 18.9 °F 51% 30.07 in 10.0 mi NNW 26.5 mph 33.4 mph N/A   Scattered Clouds
11:15 AM 35.6 °F 22.7 °F 18.5 °F 50% 30.08 in 10.0 mi NNW 28.8 mph 36.8 mph N/A   Mostly Cloudy
11:35 AM 34.9 °F 21.5 °F 15.4 °F 45% 30.09 in 10.0 mi NNW 29.9 mph 36.8 mph N/A   Scattered Clouds
11:55 AM 36.0 °F 23.0 °F 16.0 °F 44% 30.10 in 10.0 mi NW 29.9 mph 39.1 mph N/A   Scattered Clouds
12:15 PM 35.8 °F 22.8 °F 15.1 °F 43% 30.10 in 10.0 mi NNW 29.9 mph 40.3 mph N/A   Mostly Cloudy
12:35 PM 35.1 °F 22.5 °F 15.1 °F 44% 30.11 in 10.0 mi NW 26.5 mph 35.7 mph N/A   Overcast
12:55 PM 35.6 °F 21.9 °F 16.5 °F 46% 30.10 in 10.0 mi NW 33.4 mph 40.3 mph N/A   Overcast
1:15 PM 35.1 °F 21.6 °F 16.0 °F 46% 30.11 in 10.0 mi NW 31.1 mph 40.3 mph N/A   Mostly Cloudy
1:35 PM 34.2 °F 20.3 °F 15.4 °F 46% 30.11 in 10.0 mi NW 31.1 mph 46.0 mph N/A   Mostly Cloudy
1:55 PM 34.0 °F 20.1 °F 15.8 °F 47% 30.12 in 10.0 mi NNW 31.1 mph 46.0 mph N/A   Mostly Cloudy
2:15 PM 34.0 °F 19.7 °F 16.0 °F 48% 30.12 in 10.0 mi NW 33.4 mph 44.9 mph N/A   Mostly Cloudy
2:35 PM 32.5 °F 17.5 °F 15.4 °F 49% 30.13 in 10.0 mi NNW 34.5 mph 48.3 mph N/A   Mostly Cloudy
2:55 PM 33.6 °F 19.4 °F 15.1 °F 47% 30.14 in 10.0 mi NNW 32.2 mph 47.2 mph N/A   Mostly Cloudy
3:15 PM 32.2 °F 18.4 °F 16.3 °F 52% 30.14 in 10.0 mi NNW 27.6 mph 42.6 mph N/A   Scattered Clouds
3:35 PM 32.4 °F 18.6 °F 16.5 °F 52% 30.16 in 10.0 mi NNW 27.6 mph 44.9 mph N/A   Scattered Clouds
3:55 PM 33.4 °F 19.6 °F 17.8 °F 53% 30.17 in 10.0 mi NNW 29.9 mph 39.1 mph N/A   Mostly Cloudy
4:15 PM 32.5 °F 18.4 °F 16.2 °F 51% 30.17 in 10.0 mi NNW 29.9 mph 38.0 mph N/A   Scattered Clouds
4:35 PM 31.6 °F 19.0 °F 14.9 °F 50% 30.19 in 10.0 mi North 21.9 mph 32.2 mph N/A   Scattered Clouds
4:55 PM 31.6 °F 18.7 °F 14.9 °F 50% 30.19 in 10.0 mi North 23.0 mph 33.4 mph N/A   Clear
5:15 PM 29.8 °F 17.7 °F 15.6 °F 56% 30.20 in 10.0 mi North 18.4 mph 23.0 mph N/A   Scattered Clouds
5:35 PM 29.1 °F 17.9 °F 15.6 °F 57% 30.21 in 10.0 mi North 15.0 mph 23.0 mph N/A   Clear
5:55 PM 28.0 °F 17.5 °F 15.6 °F 60% 30.21 in 10.0 mi North 12.7 mph 16.1 mph N/A   Clear
6:15 PM 27.1 °F 20.7 °F 15.6 °F 62% 30.23 in 10.0 mi North 5.8 mph - N/A   Clear
6:35 PM 26.2 °F 18.6 °F 16.2 °F 66% 30.23 in 10.0 mi North 6.9 mph - N/A   Clear
6:55 PM 24.6 °F 17.7 °F 15.8 °F 69% 30.25 in 10.0 mi NNW 5.8 mph - N/A   Clear
7:15 PM 23.4 °F 17.4 °F 15.4 °F 72% 30.25 in 10.0 mi NNW 4.6 mph - N/A   Clear
7:35 PM 23.0 °F - 15.4 °F 73% 30.26 in 10.0 mi Calm Calm - N/A   Clear
7:55 PM 22.1 °F - 15.1 °F 74% 30.26 in 10.0 mi Calm Calm - N/A   Clear
8:15 PM 20.5 °F - 14.4 °F 77% 30.27 in 10.0 mi Calm Calm - N/A   Clear
8:35 PM 18.9 °F 12.1 °F 13.5 °F 79% 30.27 in 10.0 mi West 4.6 mph - N/A   Clear
8:55 PM 19.4 °F 11.5 °F 14.0 °F 80% 30.28 in 10.0 mi West 5.8 mph - N/A   Clear
9:15 PM 19.6 °F 11.7 °F 13.8 °F 78% 30.28 in 10.0 mi West 5.8 mph - N/A   Scattered Clouds
9:35 PM 18.3 °F 13.1 °F 12.4 °F 78% 30.28 in 10.0 mi WNW 3.5 mph - N/A   Clear
9:55 PM 18.1 °F - 12.9 °F 80% 30.28 in 10.0 mi Calm Calm - N/A   Clear
10:15 PM 17.6 °F 10.7 °F 12.2 °F 79% 30.28 in 10.0 mi West 4.6 mph - N/A   Clear
10:35 PM 16.9 °F 9.8 °F 11.7 °F 80% 30.29 in 10.0 mi WNW 4.6 mph - N/A   Clear
10:55 PM 16.7 °F 11.2 °F 11.8 °F 81% 30.29 in 10.0 mi WNW 3.5 mph - N/A   Clear
11:15 PM 17.1 °F 10.0 °F 12.0 °F 81% 30.29 in 10.0 mi West 4.6 mph - N/A   Clear
11:35 PM 17.6 °F - 12.2 °F 79% 30.29 in 10.0 mi Calm Calm - N/A   Mostly Cloudy
11:55 PM 19.2 °F 12.5 °F 14.0 °F 80% 30.29 in 10.0 mi West 4.6 mph - N/A   Overcast